Location: Unspecified
(40.7945°N, 0.0000°E)
Time: 21:58:07
(UTC+00:00)

Explorer 11/Cluster Stage 4 - Visible Passes

Search period start: 21 January 2021 00:00
Search period end: 31 January 2021 00:00
Orbit: 467 x 1258 km, 28.8° (Epoch: 21 January)

Date Brightness Start Highest point End Pass type
(mag) Time Alt. Az. Time Alt. Az. Time Alt. Az.
25 Jan 9.0 20:07:33 10° SSW 20:08:20 13° SSW 20:08:20 13° SSW visible
26 Jan 8.7 19:56:36 10° SSW 19:58:04 16° SSW 19:58:04 16° SSW visible
27 Jan 8.4 19:45:41 10° SSW 19:47:49 18° S 19:47:49 18° S visible
28 Jan 8.2 19:34:49 10° SW 19:37:32 20° S 19:37:32 20° S visible
29 Jan 8.1 19:23:58 10° SW 19:27:15 20° S 19:27:15 20° S visible
30 Jan 8.0 19:13:11 10° SW 19:16:29 20° S 19:16:59 19° SSE visible
